Regional Weather Roundup
Issued by NWS

Home | Current Version | Previous Version | Text Only | Print | Product List | Glossary On
Versions: 1 2 3 4 5 6 7 8 9 10 11 12 13 14 15 16 17 18 19 20 21 22 23 24 25 26 27 28 29 30 31 32 33 34 35 36 37 38 39 40 41 42 43 44 45 46 47 48 49 50
000
ASUS46 KPQR 040610
RWROR

OREGON REGIONAL WEATHER ROUNDUP
NATIONAL WEATHER SERVICE PORTLAND OR
1100 PM PDT SUN MAY 03 2015

NOTE: "FAIR" INDICATES FEW OR NO CLOUDS BELOW 12,000 FEET WITH
NO SIGNIFICANT WEATHER AND/OR OBSTRUCTIONS TO VISIBILITY.

ORZ001>013-040700-
NORTHWEST OREGON


CITY           SKY/WX    TMP DP  RH WIND       PRES   REMARKS
ASTORIA        PTCLDY    47  44  90 SW6       29.92F
6HR MIN TEMP:  47; 6HR MAX TEMP:  60;

NEWPORT        PTCLDY    48  46  93 N5        29.96F
PORTLAND       PTCLDY    59  45  59 NW7       29.87S
6HR MIN TEMP:  59; 6HR MAX TEMP:  76;

VANCOUVER WA   CLEAR     60  43  53 NW3       29.87R
6HR MIN TEMP:  60; 6HR MAX TEMP:  76;

SCAPPOOSE      CLEAR     57  44  62 N6        29.86S
6HR MIN TEMP:  57; 6HR MAX TEMP:  75;

HILLSBORO      CLEAR     56  44  64 W8        29.86F
6HR MIN TEMP:  56; 6HR MAX TEMP:  76;

AURORA         CLEAR     54  48  80 S3        29.88S
6HR MIN TEMP:  53; 6HR MAX TEMP:  74;

MCMINNVILLE    CLEAR     52  45  77 SW7       29.88S
6HR MIN TEMP:  52; 6HR MAX TEMP:  75;

SALEM          CLEAR     54  40  59 CALM      29.87S
6HR MIN TEMP:  54; 6HR MAX TEMP:  75;

CORVALLIS      CLEAR     52  45  76 NW10      29.89S
EUGENE         CLEAR     56  41  57 S5        29.89S
6HR MIN TEMP:  53; 6HR MAX TEMP:  72;

$$

ORZ021-028-040700-
SOUTHWEST OREGON


CITY           SKY/WX    TMP DP  RH WIND       PRES   REMARKS
NORTH BEND     CLOUDY    52  48  87 N10       29.97S
6HR MIN TEMP:  52; 6HR MAX TEMP:  55;

BROOKINGS      CLOUDY    49  49 100 S3        29.95R
ROSEBURG       CLEAR     59  44  57 CALM      29.89R
6HR MIN TEMP:  59; 6HR MAX TEMP:  79;

SEXTON SUMMIT  LGT RAIN  50  37  61 N12       29.92S
6HR MIN TEMP:  50; 6HR MAX TEMP:  68; 6HR PCP: TRACE;

MEDFORD        CLEAR     62  38  40 SW5       29.85R
6HR MIN TEMP:  62; 6HR MAX TEMP:  84;

$$

ORZ014>016-041-040700-
COLUMBIA GORGE


CITY           SKY/WX    TMP DP  RH WIND       PRES   REMARKS
TROUTDALE      CLEAR     60  45  57 CALM      29.86R
6HR MIN TEMP:  60; 6HR MAX TEMP:  76;

THE DALLES     CLEAR     57  36  45 CALM      29.84R
6HR MIN TEMP:  56; 6HR MAX TEMP:  81;

$$

ORZ029>031-041-044-049-050-061>064-502-503-505>511-040700-
EASTERN OREGON


CITY           SKY/WX    TMP DP  RH WIND       PRES   REMARKS
REDMOND        CLEAR     51  27  39 NW3       29.89R
6HR MIN TEMP:  46; 6HR MAX TEMP:  73;

BEND           CLEAR     54  25  32 W7        29.90S
PRINEVILLE     CLEAR     46  25  42 CALM      29.89S
KLAMATH FALLS  PTCLDY    52  37  56 CALM      29.91S
6HR MIN TEMP:  52; 6HR MAX TEMP:  74;

LAKEVIEW       MOCLDY    48  32  53 SE7       29.94R
HERMISTON      CLEAR     51  31  46 S8        29.84R
6HR MIN TEMP:  51; 6HR MAX TEMP:  77;

PENDLETON      CLEAR     51  36  56 SE8       29.86R
6HR MIN TEMP:  51; 6HR MAX TEMP:  72;

JOHN DAY       CLEAR     53  28  38 E5        29.91R
MEACHAM        CLEAR     36  32  85 CALM      29.92S
6HR MIN TEMP:  36; 6HR MAX TEMP:  63;

LA GRANDE      CLEAR     52  28  40 SW8       29.88S
6HR MIN TEMP:  52; 6HR MAX TEMP:  72;

BAKER CITY     CLEAR     45  32  60 S3        29.90S
6HR MIN TEMP:  43; 6HR MAX TEMP:  71;

BURNS          CLOUDY    55  23  28 W6        29.89R
6HR MIN TEMP:  52; 6HR MAX TEMP:  75;

ROME             N/A     65  28  24 E12       29.86R
6HR MIN TEMP:  62; 6HR MAX TEMP:  80;

ONTARIO        CLEAR     59  31  34 N5        29.83R
6HR MIN TEMP:  56; 6HR MAX TEMP:  80;

$$


USA.gov is the U.S. government's official web portal to all federal, state and local government web resources and services.